This demonstration page uses our WeatherBlox Daily Observations layout. Learn more.

Left ArrowRight Arrow

41.86663, -103.66717

Hourly Observations for February 16, 2019

Temp ( °F °C ) Dew Point ( °F °C ) Humidity (%) Winds ( mph kmh ) Pressure ( in mb ) Visibility ( mi km ) Precip ( " mm )
12:53 am 00:53 Clear 10 -12.2 9 -12.8 95 95 ESE 13 20 29.83 1010 10 16 N/A
1:53 am 01:53 Partly Cloudy 11 -11.7 9 -12.8 92 92 E 9 15 29.82 1010 10 16 N/A
2:53 am 02:53 Partly Cloudy 11 -11.7 9 -12.8 92 92 ESE 14 22 29.79 1009 10 16 N/A
3:53 am 03:53 Mostly Cloudy 11 -11.7 9 -12.8 92 92 SE 14 22 29.75 1008 10 16 N/A
4:53 am 04:53 Mostly Clear 10 -12.2 8 -13.3 92 92 ESE 17 28 29.73 1007 10 16 N/A
5:06 am 05:06 Partly Cloudy 10 -12.2 8 -13.3 92 92 ESE 16 26 29.91 1013 10 16 N/A
5:15 am 05:15 Mostly Cloudy 10 -12.2 9 -12.8 95 95 ESE 18 30 29.91 1013 10 16 N/A
5:53 am 05:53 Mostly Cloudy 11 -11.7 10 -12.2 96 96 ESE 15 24 29.72 1007 10 16 N/A
6:01 am 06:01 Mostly Cloudy 12 -11.1 11 -11.7 95 95 SE 13 20 29.89 1012 10 16 N/A
6:53 am 06:53 Cloudy 15 -9.4 14 -10 95 95 SE 12 19 29.71 1006 9 14 N/A
7:53 am 07:53 Cloudy 17 -8.3 16 -8.9 95 95 ESE 15 24 29.70 1006 8 13 N/A
8:53 am 08:53 Cloudy 20 -6.7 19 -7.2 96 96 SE 9 15 29.71 1006 7 11 N/A
9:53 am 09:53 Partly Cloudy 23 -5 21 -6.1 92 92 SE 7 11 29.69 1005 7 11 N/A
10:53 am 10:53 Sunny 26 -3.3 23 -5 88 88 SSE 5 7 29.67 1005 10 16 N/A
11:53 am 11:53 Sunny 30 -1.1 23 -5 75 75 WSW 6 9 29.65 1004 10 16 N/A
12:31 pm 12:31 Cloudy 30 -1.1 22 -5.6 72 72 WNW 9 15 29.65 1004 10 16 N/A
12:53 pm 12:53 Cloudy 31 -0.6 23 -5 72 72 WNW 13 20 29.64 1004 10 16 N/A
1:32 pm 13:32 Cloudy 37 2.8 26 -3.3 65 65 NNW 21 33 29.59 1002 10 16 N/A
1:53 pm 13:53 Cloudy 37 2.8 25 -3.9 62 62 NNW 23 37 29.62 1003 10 16 N/A
2:53 pm 14:53 Partly Cloudy 38 3.3 24 -4.4 57 57 NW 26 43 29.63 1003 10 16 N/A
3:53 pm 15:53 Sunny 36 2.2 23 -5 59 59 NNW 21 33 29.66 1004 10 16 N/A
4:53 pm 16:53 Partly Cloudy 34 1.1 22 -5.6 61 61 NNW 22 35 29.69 1006 10 16 N/A
5:53 pm 17:53 Mostly Cloudy 32 undefined 22 -5.6 66 66 NW 18 30 29.71 1006 10 16 N/A
6:53 pm 18:53 Clear 29 -1.7 20 -6.7 69 69 NNW 24 39 29.74 1007 10 16 N/A
7:53 pm 19:53 Clear 27 -2.8 19 -7.2 72 72 NW 15 24 29.78 1009 10 16 N/A
8:53 pm 20:53 Mostly Cloudy 25 -3.9 19 -7.2 78 78 NNW 9 15 29.80 1009 10 16 N/A
9:53 pm 21:53 Mostly Cloudy 25 -3.9 18 -7.8 75 75 NW 7 11 29.82 1010 10 16 N/A
10:31 pm 22:31 Cloudy 25 -4 19 -7 80 80 WNW 7 11 29.91 1013 10 16 N/A
10:53 pm 22:53 Cloudy 25 -3.9 19 -7.2 78 78 NW 13 20 29.83 1010 10 16 N/A
11:35 pm 23:35 Cloudy 25 -3.9 17 -8.3 72 72 NW 16 26 29.92 1013 10 16 N/A
11:53 pm 23:53 Cloudy 25 -3.9 17 -8.3 72 72 NW 17 28 29.83 1010 10 16 N/A

Powered by AerisWeather